Vertical_Velocity
-3 -3 -3 -3 -3 -4 -4 -5 -5 -5 -5 -4 -3 -3 -4 -5 -5 -6 -6 -6 -6 -5 -5 -5 -6 -6 -6 -6 -6 -6 -7 -7 -6 -6 -6 -5 -5 -4 -3 -2 -2 -1 -1 -0 -0 -0 -0 -0 -1 -0 0 1 3 3 2 2 2 3 4 4 4 3 3 3 5 5 4 2 2
-3 -3 -3 -3 -3 -4 -4 -4 -5 -5 -5 -4 -3 -4 -5 -5 -6 -6 -5 -5 -6 -6 -7 -8 -7 -7 -6 -6 -7 -8 -8 -7 -6 -5 -5 -5 -5 -4 -4 -3 -2 -1 -1 -1 -1 -1 -1 -1 -1 -0 0 1 3 3 2 1 0 2 3 3 3 3 3 5 7 6 3 2 2
-3 -3 -4 -4 -4 -4 -4 -4 -5 -4 -4 -3 -3 -4 -5 -6 -6 -5 -5 -5 -6 -8 -9 -9 -7 -6 -6 -7 -8 -9 -8 -6 -6 -5 -5 -4 -4 -4 -4 -3 -2 -2 -2 -2 -1 -1 -1 -1 -1 -0 1 2 3 2 1 -0 -1 0 2 2 2 2 2 2 1 0 -0 1 1
-3 -3 -4 -4 -4 -4 -5 -5 -4 -3 -2 -2 -3 -4 -5 -6 -6 -5 -4 -5 -7 -8 -8 -7 -6 -6 -6 -7 -8 -9 -9 -8 -7 -5 -4 -3 -2 -3 -3 -3 -3 -2 -2 -2 -2 -1 -1 -1 -1 0 1 2 2 2 1 -1 -2 -1 0 1 2 2 0 -2 -4 -3 -0 3 6
-4 -4 -4 -4 -4 -5 -5 -5 -4 -2 -1 -1 -2 -4 -5 -7 -6 -5 -5 -5 -6 -6 -5 -5 -5 -6 -6 -7 -8 -9 -10 -10 -8 -6 -4 -3 -1 -1 -2 -2 -2 -2 -2 -2 -2 -1 -1 -1 -0 0 1 1 1 1 -0 -2 -2 -2 -1 0 1 -0 -2 -4 -3 1 10 23 27
-4 -4 -4 -4 -4 -5 -5 -4 -3 -2 -1 -1 -2 -3 -6 -7 -6 -5 -4 -4 -4 -4 -4 -4 -6 -7 -7 -7 -8 -10 -10 -10 -9 -8 -6 -4 -2 -1 -1 -2 -2 -3 -3 -3 -2 -2 -0 2 1 0 1 1 0 -1 -2 -3 -4 -3 -2 -0 -1 -3 -3 -2 7 18 30 40 42
-4 -4 -4 -4 -4 -5 -5 -4 -3 -1 -1 -1 -2 -4 -6 -7 -6 -5 -4 -3 -3 -3 -3 -5 -7 -8 -8 -7 -8 -9 -10 -10 -10 -9 -8 -7 -5 -3 -2 -2 -3 -4 -4 -3 -1 1 3 3 0 0 1 1 0 -0 -1 -2 -5 -5 -3 0 -2 -3 0 10 23 34 40 38 37
-3 -3 -4 -4 -4 -4 -4 -4 -2 -1 -0 -1 -2 -4 -6 -7 -6 -5 -4 -3 -2 -2 -3 -5 -6 -7 -8 -8 -8 -8 -9 -10 -11 -10 -9 -8 -7 -6 -5 -4 -5 -5 -5 -4 -0 2 2 -1 -1 -1 0 1 2 4 5 3 -1 -1 0 1 -1 1 7 18 34 40 38 30 26
-3 -3 -3 -3 -3 -3 -4 -3 -2 -1 -0 -1 -3 -5 -6 -6 -6 -5 -3 -2 -1 -2 -3 -4 -6 -7 -8 -8 -7 -7 -8 -9 -10 -9 -8 -8 -8 -7 -7 -7 -7 -7 -7 -6 -4 -3 -3 -4 -3 -2 -2 -1 3 7 8 7 6 6 5 1 1 4 10 19 36 40 35 23 14
-3 -3 -3 -2 -2 -3 -3 -3 -2 -1 -0 -1 -3 -5 -6 -7 -6 -5 -3 -2 -1 -2 -3 -4 -5 -6 -7 -7 -6 -6 -6 -7 -8 -8 -8 -7 -8 -7 -7 -8 -8 -9 -9 -8 -7 -7 -6 -6 -5 -5 -4 0 9 11 10 8 8 8 6 1 2 6 11 19 29 30 24 14 4
-2 -2 -2 -2 -2 -2 -3 -3 -2 -1 -1 -2 -4 -5 -6 -7 -6 -5 -4 -2 -2 -2 -2 -4 -5 -6 -6 -6 -5 -5 -4 -5 -6 -6 -7 -7 -7 -6 -6 -5 -6 -7 -8 -9 -9 -8 -6 -5 -4 -3 0 8 8 8 7 8 9 8 7 4 5 8 12 14 14 12 8 2 -2
-2 -2 -2 -2 -1 -2 -2 -3 -2 -1 -1 -2 -4 -5 -6 -6 -6 -5 -4 -3 -2 -2 -2 -3 -5 -5 -6 -6 -6 -6 -5 -4 -4 -5 -6 -6 -5 -5 -4 -2 -2 -3 -5 -6 -6 -5 -3 -1 1 9 22 42 23 10 5 7 7 8 8 8 7 7 7 4 2 -1 -3 -4 -2
-1 -2 -2 -1 -1 -1 -2 -2 -2 -1 -1 -3 -4 -5 -6 -6 -6 -5 -5 -4 -3 -2 -2 -3 -4 -5 -5 -6 -6 -6 -5 -4 -3 -4 -5 -5 -5 -4 -3 -2 -2 -2 -3 -4 -3 -1 1 4 10 26 46 68 40 20 7 3 3 3 3 3 1 -0 -1 -3 -3 -2 -1 3 7
-1 -1 -1 -1 -1 -1 -1 -2 -2 -2 -2 -3 -4 -5 -5 -5 -6 -5 -5 -4 -3 -2 -2 -2 -3 -4 -5 -5 -6 -6 -5 -4 -3 -3 -4 -5 -5 -4 -4 -4 -5 -5 -6 -6 -5 -2 1 6 15 28 40 45 28 15 6 1 -0 -1 -0 2 3 3 3 3 4 7 11 16 17
-1 -1 -1 -1 -0 -0 -1 -1 -1 -2 -2 -2 -4 -4 -4 -5 -5 -5 -5 -5 -4 -3 -2 -2 -3 -4 -4 -5 -5 -5 -5 -4 -3 -3 -4 -5 -5 -5 -5 -6 -8 -9 -9 -8 -7 -5 -2 5 14 20 21 14 9 4 2 0 -0 -1 1 9 15 17 16 14 14 16 17 18 15
-1 -1 -1 -1 -0 -0 -0 -1 -1 -1 -2 -2 -3 -4 -4 -4 -4 -4 -4 -4 -4 -4 -3 -3 -3 -4 -4 -5 -4 -4 -4 -4 -4 -3 -4 -4 -5 -6 -6 -7 -8 -9 -8 -7 -6 -5 -2 5 12 13 9 3 2 1 0 -0 1 2 4 9 14 16 16 15 14 12 11 9 6
-1 -1 -1 -1 -0 -0 0 -0 -0 -1 -1 -2 -2 -3 -4 -4 -4 -4 -4 -4 -4 -4 -4 -4 -4 -4 -5 -5 -5 -4 -4 -4 -4 -4 -4 -4 -5 -6 -7 -7 -7 -7 -6 -5 -3 -0 3 7 10 12 11 8 7 5 3 2 2 4 5 4 6 7 8 8 7 5 4 2 1
-1 -1 -1 -1 -0 0 0 0 0 -0 -0 -1 -2 -3 -3 -4 -4 -4 -4 -3 -3 -3 -4 -4 -4 -4 -5 -5 -4 -4 -4 -4 -4 -4 -4 -4 -4 -4 -5 -6 -5 -5 -4 -2 0 2 3 4 7 9 11 12 11 9 7 5 4 5 5 3 3 3 4 4 3 2 1 0 -0
-1 -1 -1 -1 -1 -0 0 0 0 0 -0 -1 -2 -2 -3 -3 -3 -3 -3 -3 -3 -3 -3 -4 -4 -5 -5 -5 -4 -4 -3 -3 -3 -4 -4 -3 -3 -2 -2 -2 -2 -1 -1 0 1 0 -0 -0 1 3 6 7 8 8 7 6 5 4 4 4 5 4 4 3 3 2 1 0 0
-1 -1 -1 -1 -1 -0 0 0 0 -0 -0 -1 -1 -2 -3 -3 -3 -2 -2 -3 -2 -2 -3 -4 -4 -5 -5 -5 -4 -3 -3 -3 -3 -3 -3 -3 -3 -2 -1 -1 -0 0 1 2 1 0 -1 -1 -1 -0 1 1 2 3 3 4 3 3 4 4 5 4 4 2 2 1 1 0 1
-1 -1 -1 -1 -1 -0 -0 -0 -0 -0 -1 -1 -2 -2 -3 -3 -2 -2 -2 -2 -2 -2 -3 -4 -4 -4 -5 -5 -4 -3 -3 -2 -2 -2 -2 -3 -3 -2 -2 -1 -1 -0 0 1 1 1 0 -0 -0 -0 -0 -0 -0 0 1 1 2 2 2 2 2 2 2 1 0 0 0 0 1
-1 -1 -1 -1 -1 -0 -0 -0 -1 -1 -1 -2 -2 -2 -3 -2 -2 -2 -2 -2 -2 -2 -3 -3 -4 -4 -5 -4 -4 -3 -2 -2 -2 -2 -2 -2 -3 -3 -3 -2 -2 -1 -1 -1 -1 -0 -0 0 0 0 0 -0 -0 -0 -0 -0 -0 1 2 1 0 0 -0 -0 -1 -1 -1 -0 -0
-1 -1 -1 -1 -1 -0 -0 -1 -1 -1 -1 -2 -2 -3 -3 -2 -2 -2 -2 -2 -2 -2 -2 -3 -3 -4 -4 -4 -4 -3 -2 -1 -2 -2 -2 -2 -2 -2 -2 -2 -2 -2 -1 -1 -1 -1 -1 -0 0 0 0 -0 -1 -1 -1 -2 -2 -1 -1 -1 -2 -2 -2 -2 -2 -2 -2 -2 -2
-0 -1 -1 -1 -1 -1 -1 -1 -1 -1 -1 -2 -2 -3 -3 -2 -2 -2 -2 -2 -2 -2 -2 -2 -3 -4 -4 -4 -4 -3 -2 -1 -1 -2 -2 -2 -2 -2 -2 -2 -1 -1 -1 -1 -1 -1 -1 -1 -1 -0 -0 -1 -1 -1 -1 -2 -2 -3 -3 -3 -2 -2 -2 -2 -2 -2 -2 -2 -1
0 -0 -1 -1 -1 -1 -1 -1 -1 -1 -1 -1 -2 -2 -3 -2 -2 -2 -2 -2 -2 -2 -2 -2 -3 -3 -4 -4 -4 -3 -2 -1 -1 -1 -2 -2 -2 -1 -1 -1 -0 -0 0 0 0 -0 -0 -0 -1 -1 -1 -1 -1 -1 -1 -1 -1 -1 -1 -1 -1 -1 -1 -1 -1 -1 -1 -0 -0
0 0 -0 -1 -1 -1 -2 -2 -2 -1 -1 -1 -2 -2 -2 -3 -2 -2 -2 -2 -2 -2 -2 -2 -2 -3 -3 -4 -4 -3 -3 -2 -1 -1 -1 -1 -2 -1 -1 -1 -0 0 1 1 1 1 1 1 1 0 0 0 0 0 0 0 0 1 1 1 1 1 1 0 0 -0 -0 0 0
1 0 -0 -1 -1 -1 -2 -2 -2 -1 -1 -1 -1 -2 -2 -3 -3 -2 -2 -1 -1 -1 -1 -1 -2 -2 -3 -3 -4 -4 -3 -2 -2 -1 -1 -1 -1 -1 -1 -1 -1 -0 0 1 1 1 2 2 2 2 2 2 1 1 1 1 1 2 2 1 1 1 1 1 0 0 0 0 0
1 1 0 -0 -1 -2 -2 -2 -2 -2 -1 -1 -1 -2 -2 -3 -3 -2 -2 -1 -1 -0 -1 -1 -1 -2 -2 -3 -3 -3 -3 -3 -2 -2 -1 -0 -0 -0 -1 -1 -2 -1 -1 -0 0 0 1 2 2 2 2 2 2 2 2 1 1 1 1 1 1 1 1 1 0 0 0 0 1
1 1 0 -0 -1 -2 -2 -2 -2 -2 -1 -1 -1 -1 -2 -2 -2 -2 -1 -1 -0 0 0 -1 -1 -2 -2 -2 -2 -2 -3 -3 -2 -2 -1 -0 0 0 -0 -1 -2 -2 -2 -1 -1 -1 -0 1 1 2 2 3 2 2 2 1 1 1 1 0 0 0 0 0 0 0 -0 -0 0
1 0 0 -0 -0 -1 -2 -2 -2 -2 -2 -2 -1 -1 -1 -2 -2 -2 -1 -1 0 1 1 -0 -1 -1 -1 -1 -2 -2 -2 -3 -3 -2 -1 -0 0 0 0 -0 -1 -1 -1 -1 -1 -1 -0 0 1 2 2 3 3 3 2 2 2 2 1 1 1 2 2 2 1 1 0 -0 0
1 0 0 0 0 -0 -1 -2 -3 -3 -3 -2 -2 -2 -1 -1 -1 -1 -1 -1 0 1 1 1 -0 -0 -1 -1 -1 -2 -2 -3 -3 -3 -2 -1 0 0 0 -0 -0 -0 -0 -1 -1 -0 -0 1 1 1 1 1 1 1 1 1 1 1 1 1 2 2 2 2 1 1 0 0 0
1 0 0 1 1 1 -0 -1 -2 -3 -3 -3 -3 -3 -2 -2 -1 -1 -1 -1 -0 0 0 0 0 0 -0 -0 -1 -1 -2 -2 -3 -3 -3 -2 -0 0 0 -0 -0 0 0 0 0 1 1 1 1 1 1 1 0 0 0 0 1 1 1 1 0 0 0 0 1 1 1 0 0
1 1 1 1 1 1 1 -0 -1 -2 -3 -3 -4 -4 -3 -3 -3 -2 -1 -1 -1 -1 -1 -0 -0 0 0 0 0 -0 -1 -2 -2 -2 -3 -3 -2 -1 -0 -0 -0 -0 -0 -0 0 1 2 2 1 1 1 1 0 0 0 1 3 4 4 4 3 3 3 3 4 4 4 3 2
1 1 1 0 1 2 2 1 -0 -1 -2 -2 -3 -3 -4 -4 -4 -4 -3 -2 -1 -1 -1 -1 -1 -0 0 1 1 0 -1 -1 -1 -2 -2 -3 -3 -2 -1 -0 -1 -1 -2 -2 -1 -0 1 1 1 1 1 1 0 0 1 3 7 9 9 8 8 8 9 10 12 12 12 11 9
2 2 1 0 1 1 2 2 1 0 -1 -1 -2 -2 -2 -3 -4 -4 -5 -4 -3 -2 -1 -0 -0 -0 0 1 1 -0 -1 -1 -1 -1 -2 -2 -3 -3 -3 -1 -1 -1 -1 -2 -1 -1 -0 -0 0 0 0 0 -0 -0 1 6 9 10 8 7 5 3 2 3 6 8 10 11 11
2 2 1 0 0 1 2 3 2 1 0 -0 -1 -1 -1 -1 -2 -2 -3 -3 -4 -4 -3 -1 0 1 1 2 1 -1 -2 -2 -1 -1 -1 -2 -2 -3 -3 -3 -1 -0 0 0 1 1 1 1 2 2 2 2 0 0 2 5 6 7 6 4 2 -1 -3 -4 -2 -1 1 2 3
2 2 1 0 -0 0 1 2 2 2 1 0 -0 -0 -1 -0 -0 0 -0 -1 -3 -5 -5 -4 -1 1 2 4 2 -0 -2 -2 -2 -1 -1 -1 -2 -2 -2 -2 -1 0 2 3 3 4 4 3 4 5 6 5 4 4 4 4 5 6 5 4 3 1 -0 -2 -2 -2 -2 -2 -2
1 1 0 -0 -1 -0 0 1 2 2 1 0 -0 -1 -1 -1 -1 -0 0 1 -1 -4 -6 -6 -3 -1 2 4 3 2 0 -1 -2 -1 -1 -1 -1 -1 -2 -1 -1 -0 1 3 3 3 2 2 2 2 3 3 3 4 4 4 4 5 5 5 4 2 1 -0 -1 -1 -1 -1 -2
1 0 0 -0 -1 -1 -1 -0 1 1 1 -0 -1 -1 -2 -2 -1 -1 -0 0 -1 -2 -4 -5 -4 -3 -1 1 2 2 2 1 -0 -1 -1 -1 -1 -1 -1 -1 -2 -2 -1 -0 0 1 1 0 -0 -1 -1 -2 -1 -1 -0 0 2 3 4 4 3 2 1 0 -0 -0 -0 -0 -0
0 0 -0 -0 -0 -0 -0 -1 -0 -0 -0 -1 -2 -2 -2 -2 -2 -1 -1 -0 -1 -2 -3 -4 -4 -4 -3 -2 -0 1 1 1 -0 -0 -1 -1 -1 -1 -0 0 -1 -2 -2 -2 -2 -1 -1 -1 -1 -2 -3 -3 -3 -3 -3 -2 -0 1 1 2 1 1 -0 -1 -1 -0 0 1 2
-0 -0 -0 -0 0 1 0 -0 -0 -1 -1 -1 -2 -3 -3 -2 -2 -1 -0 -0 -1 -2 -2 -3 -3 -4 -4 -3 -2 -1 -0 0 0 -0 -0 -0 -0 0 1 2 1 -0 -1 -1 -2 -2 -2 -2 -1 -1 -1 -1 -1 -1 -1 -1 0 0 1 1 1 0 -0 -1 -1 -0 1 3 4
Height
5696 5694 5692 5690 5688 5686 5683 5681 5679 5677 5675 5673 5671 5670 5668 5666 5663 5661 5657 5654 5651 5647 5644 5639 5635 5630 5625 5621 5616 5612 5607 5602 5597 5591 5585 5579 5574 5569 5565 5562 5560 5558 5557 5557 5557 5558 5559 5559 5560 5561 5562 5563 5564 5567 5570 5574 5578 5584 5589 5594 5600 5605 5611 5617 5622 5627 5631 5635 5639
5693 5691 5689 5687 5685 5683 5681 5679 5677 5675 5673 5671 5669 5667 5666 5663 5661 5658 5655 5652 5648 5645 5641 5637 5632 5628 5623 5619 5614 5610 5605 5600 5594 5588 5582 5577 5572 5567 5563 5560 5558 5556 5555 5555 5555 5555 5556 5556 5557 5557 5558 5560 5562 5564 5567 5571 5576 5581 5587 5592 5597 5602 5608 5615 5620 5624 5628 5632 5637
5691 5689 5687 5685 5683 5681 5679 5677 5675 5673 5671 5669 5667 5666 5663 5661 5659 5656 5653 5649 5646 5642 5638 5634 5631 5626 5622 5617 5612 5608 5603 5597 5592 5587 5581 5576 5571 5566 5562 5559 5557 5555 5554 5553 5553 5553 5553 5554 5554 5555 5556 5557 5559 5562 5565 5569 5574 5579 5585 5590 5596 5601 5607 5612 5617 5622 5627 5631 5635
5688 5687 5685 5683 5681 5679 5677 5675 5673 5671 5669 5667 5665 5663 5661 5659 5657 5653 5651 5647 5644 5640 5637 5633 5629 5625 5621 5616 5611 5607 5602 5597 5591 5586 5581 5575 5570 5565 5562 5558 5556 5554 5553 5552 5552 5552 5552 5552 5552 5553 5554 5555 5557 5560 5564 5568 5573 5578 5584 5589 5595 5600 5606 5612 5617 5621 5625 5630 5634
5686 5684 5682 5681 5678 5676 5674 5672 5671 5669 5667 5666 5664 5662 5659 5657 5654 5652 5649 5646 5642 5639 5636 5632 5628 5624 5620 5615 5610 5606 5601 5596 5591 5586 5581 5575 5570 5566 5562 5558 5556 5554 5552 5552 5551 5550 5550 5551 5551 5552 5552 5554 5556 5559 5563 5568 5573 5578 5583 5589 5595 5600 5606 5611 5616 5620 5624 5629 5634
5684 5682 5680 5678 5676 5674 5672 5671 5669 5667 5666 5664 5662 5660 5657 5655 5653 5650 5647 5644 5641 5637 5634 5631 5627 5623 5619 5614 5610 5606 5601 5597 5592 5587 5582 5577 5572 5567 5563 5560 5557 5554 5552 5551 5550 5550 5550 5550 5550 5551 5552 5553 5556 5559 5563 5568 5573 5579 5584 5590 5595 5600 5605 5610 5614 5619 5624 5630 5635
5682 5680 5678 5676 5674 5672 5671 5669 5667 5666 5664 5662 5660 5658 5656 5653 5651 5648 5646 5642 5639 5637 5633 5630 5626 5622 5618 5614 5610 5606 5602 5597 5593 5588 5584 5579 5574 5570 5565 5561 5558 5556 5554 5552 5552 5551 5551 5551 5551 5551 5552 5554 5557 5560 5564 5569 5575 5580 5585 5590 5595 5599 5603 5607 5613 5619 5624 5629 5635
5680 5678 5677 5675 5673 5671 5669 5667 5666 5664 5662 5660 5658 5656 5654 5652 5649 5647 5644 5641 5638 5636 5632 5629 5625 5622 5618 5614 5610 5606 5602 5598 5595 5591 5586 5582 5577 5573 5569 5565 5562 5558 5556 5554 5553 5553 5552 5552 5552 5552 5554 5556 5558 5562 5566 5571 5576 5581 5586 5591 5595 5598 5601 5605 5613 5620 5625 5629 5633
5678 5677 5675 5673 5671 5669 5668 5666 5664 5662 5661 5659 5657 5654 5652 5650 5648 5646 5643 5640 5637 5635 5631 5628 5624 5621 5618 5614 5611 5607 5603 5599 5595 5592 5588 5584 5581 5577 5573 5569 5566 5562 5559 5557 5556 5555 5555 5554 5554 5555 5557 5559 5562 5565 5569 5574 5578 5583 5587 5591 5594 5597 5600 5604 5613 5620 5624 5627 5628
5677 5675 5673 5671 5670 5668 5666 5664 5662 5661 5659 5657 5655 5653 5651 5649 5647 5644 5642 5639 5637 5634 5631 5627 5624 5621 5617 5614 5611 5607 5603 5600 5597 5593 5590 5587 5583 5580 5577 5573 5571 5568 5565 5562 5560 5559 5558 5557 5558 5559 5561 5563 5567 5570 5573 5577 5581 5584 5588 5592 5595 5597 5601 5605 5611 5617 5620 5623 5625
5675 5673 5672 5670 5668 5666 5665 5663 5661 5659 5657 5656 5654 5652 5650 5647 5645 5643 5641 5638 5636 5633 5630 5627 5623 5621 5617 5614 5611 5608 5604 5601 5598 5595 5592 5589 5586 5582 5580 5577 5575 5573 5571 5567 5565 5563 5562 5562 5562 5563 5565 5569 5573 5576 5578 5581 5584 5587 5590 5593 5597 5600 5604 5607 5610 5613 5616 5620 5623
5673 5671 5670 5668 5667 5665 5663 5662 5660 5658 5656 5654 5652 5651 5648 5647 5644 5642 5640 5637 5635 5632 5630 5627 5623 5621 5617 5614 5611 5608 5605 5602 5599 5596 5593 5591 5588 5585 5582 5580 5578 5577 5575 5573 5570 5568 5567 5566 5566 5565 5567 5575 5583 5586 5586 5586 5587 5590 5593 5596 5599 5603 5606 5608 5609 5612 5616 5619 5622
5671 5670 5668 5667 5665 5663 5662 5660 5658 5657 5655 5653 5652 5649 5647 5645 5643 5641 5639 5637 5634 5632 5629 5627 5623 5620 5617 5614 5611 5608 5606 5603 5600 5598 5595 5592 5590 5587 5585 5582 5580 5579 5577 5576 5574 5573 5572 5571 5570 5570 5575 5584 5592 5593 5592 5590 5590 5592 5595 5598 5601 5604 5606 5608 5610 5613 5616 5619 5622
5669 5668 5667 5665 5663 5662 5660 5659 5657 5656 5654 5652 5650 5648 5647 5644 5642 5640 5638 5636 5634 5631 5629 5626 5623 5620 5618 5615 5612 5609 5606 5604 5602 5599 5597 5595 5592 5590 5587 5585 5583 5582 5580 5579 5577 5576 5575 5575 5575 5578 5584 5589 5594 5595 5593 5592 5592 5594 5597 5599 5602 5604 5606 5608 5610 5613 5615 5618 5621
5667 5666 5665 5663 5662 5661 5659 5657 5656 5654 5653 5651 5649 5647 5646 5644 5642 5640 5637 5635 5633 5631 5628 5626 5623 5621 5618 5615 5612 5609 5607 5605 5602 5600 5598 5597 5595 5592 5590 5588 5586 5585 5583 5582 5580 5579 5579 5579 5581 5585 5590 5593 5595 5595 5594 5594 5595 5597 5599 5601 5603 5604 5606 5607 5610 5612 5615 5617 5619
5666 5665 5663 5662 5661 5659 5658 5656 5655 5653 5652 5650 5648 5647 5645 5643 5641 5639 5637 5635 5633 5631 5628 5626 5623 5621 5618 5616 5613 5610 5608 5606 5604 5602 5600 5598 5596 5594 5592 5590 5588 5587 5586 5585 5584 5583 5583 5584 5586 5588 5591 5593 5594 5595 5595 5596 5597 5599 5601 5602 5604 5606 5607 5609 5611 5613 5615 5617 5618
5664 5663 5662 5660 5659 5658 5656 5655 5653 5652 5651 5649 5647 5646 5644 5642 5640 5638 5637 5635 5632 5630 5628 5626 5623 5621 5618 5616 5613 5611 5609 5607 5605 5603 5601 5600 5598 5596 5594 5592 5591 5590 5589 5588 5587 5587 5587 5588 5589 5590 5592 5593 5595 5596 5597 5598 5599 5601 5602 5604 5605 5607 5608 5610 5612 5613 5615 5616 5618
5663 5662 5660 5659 5658 5656 5655 5653 5652 5651 5649 5648 5646 5645 5643 5641 5640 5638 5636 5634 5632 5630 5628 5626 5623 5621 5619 5617 5614 5612 5610 5608 5606 5604 5603 5602 5600 5599 5597 5596 5595 5594 5593 5592 5591 5591 5591 5591 5592 5593 5593 5594 5596 5598 5598 5599 5600 5602 5603 5604 5606 5607 5609 5610 5612 5613 5614 5616 5617
5661 5660 5659 5657 5656 5655 5654 5652 5651 5650 5648 5647 5645 5644 5642 5641 5639 5637 5636 5634 5632 5630 5628 5626 5624 5621 5619 5617 5615 5613 5611 5609 5607 5606 5604 5603 5602 5601 5600 5599 5598 5597 5597 5596 5595 5595 5595 5595 5595 5595 5596 5597 5598 5599 5600 5600 5601 5602 5603 5604 5606 5607 5608 5610 5611 5612 5614 5615 5616
5660 5659 5657 5656 5655 5654 5652 5651 5650 5648 5647 5646 5644 5643 5642 5640 5639 5637 5636 5634 5632 5630 5628 5626 5624 5622 5620 5618 5616 5614 5612 5610 5609 5607 5606 5605 5604 5603 5603 5602 5601 5600 5599 5598 5598 5598 5598 5598 5598 5598 5599 5599 5600 5600 5601 5602 5602 5603 5604 5605 5606 5607 5608 5609 5611 5612 5613 5615 5616
5659 5657 5656 5655 5654 5652 5651 5650 5649 5647 5646 5645 5643 5642 5641 5639 5638 5637 5635 5633 5632 5630 5628 5626 5624 5622 5620 5618 5617 5615 5613 5612 5610 5609 5608 5607 5606 5605 5605 5604 5603 5602 5602 5601 5600 5600 5600 5600 5600 5601 5601 5602 5602 5602 5603 5603 5604 5605 5606 5607 5607 5608 5609 5610 5611 5613 5614 5615 5616
5657 5656 5655 5654 5652 5651 5650 5649 5647 5646 5645 5644 5643 5642 5640 5639 5637 5636 5635 5633 5631 5629 5628 5626 5624 5623 5621 5619 5617 5616 5614 5613 5612 5610 5609 5608 5607 5607 5606 5605 5605 5604 5604 5603 5602 5602 5602 5602 5602 5602 5603 5603 5603 5604 5604 5605 5607 5607 5608 5609 5609 5610 5611 5612 5613 5614 5615 5616 5617
5656 5655 5654 5652 5652 5650 5649 5647 5647 5645 5644 5643 5642 5641 5639 5638 5637 5636 5634 5632 5631 5629 5628 5626 5624 5623 5622 5620 5618 5617 5615 5614 5613 5612 5611 5610 5609 5608 5607 5607 5606 5606 5605 5605 5604 5604 5604 5604 5604 5604 5605 5605 5606 5606 5606 5607 5608 5609 5610 5610 5611 5612 5613 5613 5614 5615 5616 5617 5618
5655 5654 5652 5652 5650 5649 5648 5647 5645 5644 5643 5642 5641 5640 5639 5637 5637 5635 5634 5632 5631 5629 5627 5626 5625 5623 5622 5621 5619 5618 5616 5615 5614 5613 5612 5611 5610 5610 5609 5608 5608 5607 5607 5607 5606 5606 5606 5606 5606 5606 5606 5607 5608 5608 5608 5608 5609 5610 5611 5612 5612 5614 5615 5615 5616 5617 5617 5618 5620
5654 5652 5651 5650 5649 5648 5647 5646 5644 5643 5642 5641 5640 5639 5638 5637 5636 5635 5633 5632 5630 5629 5627 5626 5625 5623 5622 5621 5620 5619 5617 5616 5615 5614 5613 5612 5612 5611 5610 5610 5609 5609 5608 5608 5608 5608 5607 5607 5608 5608 5608 5608 5609 5609 5610 5610 5610 5611 5612 5612 5613 5615 5616 5617 5617 5618 5619 5620 5621
5652 5651 5650 5649 5648 5647 5646 5645 5644 5642 5641 5640 5639 5638 5637 5636 5635 5634 5633 5632 5630 5629 5627 5626 5625 5624 5622 5621 5620 5619 5618 5617 5616 5615 5614 5613 5613 5612 5612 5611 5611 5610 5610 5609 5609 5609 5609 5609 5609 5609 5609 5610 5610 5610 5611 5611 5611 5612 5612 5613 5614 5615 5616 5617 5617 5618 5619 5620 5621
5651 5650 5649 5648 5647 5646 5645 5644 5643 5642 5641 5640 5638 5637 5637 5635 5634 5633 5632 5631 5630 5629 5627 5626 5625 5624 5623 5622 5621 5620 5619 5617 5617 5616 5615 5614 5614 5613 5613 5612 5612 5611 5611 5611 5610 5610 5610 5610 5610 5610 5610 5611 5611 5611 5612 5612 5612 5612 5613 5614 5614 5615 5616 5617 5617 5618 5618 5619 5620
5650 5649 5648 5647 5646 5645 5644 5643 5642 5641 5640 5639 5638 5637 5636 5635 5634 5633 5632 5631 5630 5629 5627 5626 5625 5624 5623 5622 5621 5620 5619 5618 5617 5616 5615 5615 5614 5614 5613 5613 5612 5612 5612 5612 5611 5611 5611 5611 5611 5611 5611 5612 5612 5612 5612 5612 5613 5613 5613 5614 5614 5615 5615 5616 5617 5617 5618 5619 5620
5648 5647 5647 5645 5644 5643 5643 5642 5641 5640 5639 5638 5637 5636 5635 5634 5633 5632 5632 5631 5630 5629 5627 5627 5625 5624 5623 5622 5622 5621 5620 5619 5618 5617 5616 5615 5615 5614 5614 5614 5613 5613 5612 5612 5612 5612 5612 5612 5612 5612 5612 5612 5612 5612 5612 5612 5613 5613 5613 5614 5614 5615 5615 5616 5616 5617 5617 5618 5619
5647 5646 5645 5644 5643 5642 5642 5641 5640 5639 5638 5637 5636 5635 5635 5634 5633 5632 5631 5630 5629 5628 5627 5626 5625 5624 5623 5622 5622 5621 5620 5619 5618 5617 5617 5616 5615 5615 5614 5614 5614 5613 5613 5612 5612 5612 5612 5612 5612 5612 5612 5612 5613 5612 5612 5612 5613 5613 5613 5613 5613 5614 5614 5615 5615 5616 5617 5617 5618
5645 5644 5644 5643 5642 5641 5640 5640 5639 5638 5637 5636 5635 5635 5634 5633 5632 5632 5631 5630 5629 5628 5627 5626 5625 5624 5623 5622 5622 5621 5620 5619 5618 5618 5617 5616 5616 5615 5615 5614 5614 5613 5613 5613 5612 5612 5612 5612 5612 5612 5612 5612 5612 5612 5612 5612 5612 5612 5612 5612 5613 5613 5613 5614 5614 5615 5615 5616 5617
5643 5643 5642 5642 5641 5640 5639 5638 5637 5637 5636 5635 5634 5633 5633 5632 5632 5631 5630 5629 5628 5627 5627 5626 5625 5624 5623 5622 5622 5621 5620 5619 5618 5618 5617 5617 5616 5615 5615 5614 5614 5614 5613 5613 5613 5612 5612 5612 5612 5612 5612 5612 5612 5612 5612 5612 5612 5612 5612 5612 5612 5612 5612 5613 5613 5614 5614 5615 5615
5642 5641 5641 5640 5639 5639 5638 5637 5636 5636 5635 5634 5633 5632 5632 5631 5631 5630 5629 5628 5627 5627 5626 5625 5624 5624 5623 5622 5622 5621 5620 5619 5618 5618 5617 5617 5616 5615 5615 5614 5614 5613 5613 5613 5613 5612 5612 5612 5612 5612 5612 5612 5612 5612 5612 5612 5612 5612 5611 5611 5611 5612 5612 5612 5612 5613 5613 5614 5614
5640 5640 5639 5639 5638 5637 5637 5636 5635 5635 5634 5633 5632 5632 5631 5630 5629 5629 5628 5627 5627 5626 5625 5624 5623 5623 5622 5622 5621 5621 5620 5619 5618 5617 5617 5616 5616 5615 5615 5614 5614 5613 5613 5612 5612 5612 5612 5612 5612 5612 5612 5612 5612 5612 5612 5612 5612 5612 5612 5612 5612 5612 5612 5612 5612 5612 5612 5613 5614
5638 5638 5637 5637 5637 5636 5636 5635 5634 5634 5633 5632 5632 5631 5630 5629 5629 5628 5627 5627 5626 5625 5624 5623 5622 5622 5621 5621 5620 5620 5619 5618 5618 5617 5617 5616 5616 5615 5615 5614 5614 5613 5612 5612 5612 5612 5612 5612 5611 5611 5612 5612 5612 5612 5612 5612 5612 5612 5612 5612 5612 5611 5611 5611 5611 5612 5612 5612 5613
5637 5637 5636 5635 5635 5635 5634 5634 5633 5632 5632 5632 5631 5630 5629 5629 5628 5627 5627 5626 5625 5624 5623 5622 5621 5621 5621 5621 5619 5618 5618 5617 5617 5617 5616 5616 5615 5615 5615 5615 5614 5612 5612 5611 5611 5611 5611 5611 5611 5611 5611 5611 5611 5611 5611 5611 5611 5611 5611 5611 5611 5610 5610 5610 5609 5609 5609 5610 5610
5635 5635 5634 5634 5633 5633 5633 5632 5632 5631 5631 5630 5630 5629 5628 5627 5627 5626 5626 5625 5625 5624 5623 5622 5621 5620 5620 5620 5619 5618 5617 5616 5616 5616 5616 5615 5615 5615 5615 5614 5613 5612 5612 5611 5611 5611 5611 5611 5611 5611 5610 5610 5610 5611 5611 5610 5610 5610 5610 5610 5610 5609 5608 5607 5607 5607 5607 5607 5608
5633 5633 5632 5632 5632 5632 5631 5631 5630 5629 5629 5628 5628 5627 5627 5626 5625 5625 5624 5624 5624 5623 5622 5621 5620 5620 5619 5618 5618 5617 5616 5615 5614 5614 5614 5614 5614 5614 5614 5614 5613 5612 5612 5612 5611 5611 5610 5610 5610 5610 5609 5609 5609 5609 5609 5609 5609 5609 5609 5608 5608 5607 5607 5606 5606 5605 5606 5606 5606
5631 5631 5630 5630 5630 5630 5629 5629 5628 5628 5627 5627 5627 5626 5625 5625 5624 5623 5622 5622 5622 5621 5621 5620 5619 5619 5618 5617 5617 5616 5615 5614 5613 5612 5612 5612 5612 5613 5613 5613 5612 5612 5612 5612 5611 5610 5610 5609 5609 5608 5608 5608 5608 5608 5608 5608 5608 5607 5607 5607 5606 5606 5606 5605 5605 5604 5604 5604 5605
5629 5629 5629 5628 5628 5628 5627 5627 5627 5626 5626 5625 5625 5624 5624 5623 5622 5622 5621 5621 5620 5619 5618 5618 5617 5617 5617 5616 5616 5615 5614 5613 5612 5612 5611 5611 5611 5611 5612 5612 5611 5611 5611 5610 5609 5609 5608 5608 5607 5607 5607 5606 5606 5606 5606 5607 5606 5606 5606 5605 5605 5605 5605 5604 5604 5604 5603 5603 5604
5628 5627 5627 5627 5626 5626 5626 5625 5625 5624 5624 5623 5623 5622 5622 5622 5621 5621 5620 5619 5618 5618 5617 5617 5616 5616 5615 5615 5615 5614 5613 5613 5612 5611 5610 5610 5610 5610 5610 5610 5610 5610 5609 5608 5608 5607 5607 5607 5606 5606 5605 5605 5605 5605 5605 5605 5605 5605 5605 5604 5604 5604 5604 5603 5603 5603 5603 5603 5603